Flag for Poland Weather past 2 weeks in Bytom, Poland

Now
81 °F

Sunny.


Feels Like: 81 °F
Forecast: 64 / 90 °F
Wind: 6 mph from West

Location: Katowice Airport

Current Time: Aug 30, 2015 at 8:51:13 PM

Latest Report: Aug 30, 2015 at 8:00 PM


Visibility: 10 mi

Pressure: 30.09 "Hg

Humidity: 45%

Dew point: 57 °F

Location of BytomLocation

Historic Weather in Bytom — Graph

°F

Bytom temperature yesterday

Maximum temperature yesterday: 75 °F (at 4:30 PM)
Minimum temperature yesterday: 61 °F (at 11:00 PM)
Average temperature yesterday: 67 °F

Past Weeks' High & Low Weather Summary

 TemperatureHumidityPressure
High93 °F (Aug 30, 3:30 PM)100% (Aug 16, 1:30 PM)30.30 "Hg (Aug 16, 1:30 PM)
Low46 °F (Aug 22, 6:00 AM)25% (Aug 20, 3:00 PM)29.80 "Hg (Aug 15, 8:00 PM)
Average67 °F63%30.05 "Hg
* Reported Aug 15 8:00 PM — Aug 30 8:00 PM, Bytom, Weather by CustomWeather, © 2015

Note: Actual official high and low records may vary slightly from our data, if they occured in-between our weather recording intervals... More about our weather records

Advertising

Bytom weather history for previous 24 hours

 ConditionsComfort  
Time TempWeatherWind HumidityBarometerVisibility
8:00 PM
Sun, Aug 30
81 °FSunny.6 mph45%30.09 "Hg10 mi
7:30 PM82 °FSunny.6 mph42%30.09 "Hg10 mi
7:00 PM90 °FSunny.10 mph33%30.07 "Hg10 mi
6:30 PM91 °FSunny.8 mph32%30.07 "Hg10 mi
6:00 PM91 °FSunny.7 mph34%30.07 "Hg10 mi
5:30 PM91 °FPassing clouds.8 mph34%30.07 "HgN/A
5:00 PM93 °FPassing clouds.7 mph32%30.09 "HgN/A
4:30 PM93 °FPassing clouds.8 mph32%30.09 "HgN/A
4:00 PM91 °FSunny.5 mph34%30.09 "Hg10 mi
3:30 PM93 °FSunny.3 mph32%30.12 "Hg10 mi
3:00 PM91 °FPassing clouds.7 mph32%30.12 "HgN/A
2:30 PM91 °FPassing clouds.6 mph34%30.12 "HgN/A
2:00 PM90 °FPassing clouds.6 mph38%30.15 "HgN/A
1:30 PM90 °FSunny.3 mph36%30.15 "Hg10 mi
1:00 PM88 °FSunny.6 mph40%30.15 "Hg10 mi
12:30 PM88 °FPassing clouds.6 mph40%30.15 "HgN/A
12:00 PM88 °FPassing clouds.8 mph40%30.18 "HgN/A
11:30 AM86 °FPassing clouds.9 mph46%30.18 "HgN/A
11:00 AM84 °FPassing clouds.8 mph48%30.18 "HgN/A
10:30 AM82 °FPassing clouds.9 mph51%30.18 "HgN/A
10:00 AM81 °FSunny.10 mph51%30.18 "Hg10 mi
9:30 AM77 °FSunny.8 mph61%30.21 "Hg10 mi
9:00 AM73 °FSunny.9 mph69%30.21 "Hg10 mi
8:30 AM70 °FPassing clouds.7 mph78%30.21 "HgN/A
8:00 AM68 °FClear.9 mph83%30.21 "Hg4 mi
7:30 AM66 °FFog.7 mph88%30.21 "Hg3 mi
7:00 AM63 °FFog.5 mph94%30.21 "Hg2 mi
6:00 AM59 °FFog.3 mph100%30.21 "Hg1 mi
5:30 AM61 °FFog.6 mph94%30.21 "Hg1 mi
5:00 AM59 °FCool.5 mph100%30.21 "Hg1 mi
4:30 AM59 °FCool.3 mph94%30.21 "Hg1 mi
4:00 AM59 °FCool.5 mph100%30.21 "Hg1 mi
3:30 AM57 °FFog.5 mph100%30.21 "Hg2 mi
3:00 AM57 °FFog.3 mph100%30.24 "Hg2 mi
2:30 AM57 °FCool.2 mph94%30.24 "Hg2 mi
2:00 AM57 °FFog.1 mph100%30.24 "Hg2 mi
1:30 AM57 °FFog.3 mph100%30.24 "Hg2 mi
1:00 AM59 °FClear.2 mph94%30.24 "Hg4 mi
12:30 AM59 °FClear.5 mph94%30.24 "Hg4 mi
12:00 AM61 °FPassing clouds.5 mph94%30.27 "HgN/A
11:00 PM
Sat, Aug 29
61 °FPassing clouds.5 mph88%30.27 "HgN/A
10:30 PM64 °FClear.6 mph88%30.27 "Hg10 mi
10:00 PM63 °FClear.5 mph88%30.27 "Hg10 mi
9:30 PM63 °FClear.5 mph88%30.27 "Hg10 mi
9:00 PM64 °FClear.5 mph88%30.24 "Hg10 mi
8:30 PM64 °FSunny.5 mph88%30.27 "Hg10 mi
8:00 PM68 °FSunny.3 mph78%30.24 "Hg10 mi
Weather by CustomWeather, © 2015

See weather overviewHow to use our weather pages